Погода в Шабровском

Россия / Свердловская область     56°38′22″N   60°34′27″E
темп.,
°C
ветер,
м/с
пор.,
м/с
влажн.,
%
обл.,
%
осадки,
мм/ч
давл.,
гПа
погр.,
м
21 января, пт
пт2123:00−12юз389313 0.0 1021176
02:00−11юз3119199 0.0 1021327
05:00−11зюз3129097 0.0 1022318
08:00−12зюз3109153 0.0 1022242
11:00−10зюз3118955 0.0 1023345
14:00−7зюз388698 0.0 1023398
17:00−12юз1196100 0.0 102410
20:00−16юз229720 0.0 102627
22 января, сб
сб2223:00−17юз229786 0.0 102721
02:00−18юз219866 0.0 102811
05:00−18юз11985 0.0 10299
08:00−19юз1198100 0.0 10299
11:00−12юз12885 0.0 102941
14:00−6ю12806 0.0 1029185
17:00−12юв119622 0.0 103010
20:00−16ююз119873 0.0 10329
23 января, вс
вс2323:00−18ююз119956 0.0 10339
02:00−18юз119953 0.0 10349
05:00−19юз1199100 0.0 10359
08:00−19юз119988 0.0 10369
11:00−12ю1181100 0.0 103632
14:00−8ююв116890 0.0 1036108
17:00−13ююв1192100 0.0 103810
20:00−15ю2196100 0.0 103913
24 января, пн
пн2423:00−16юз1196100 0.0 10409
02:00−18ююз1194100 0.0 104013
05:00−17ююз1193100 0.0 104110
08:00−15ююз1192100 0.0 104010
11:00−10зюз1279100 0.0 103959
14:00−6юз1278100 0.0 1038120
17:00−8зюз1194100 0.0 103810
20:00−11з1196100 0.0 103823
25 января, вт
вт2523:00−10з2792100 0.0 1037152
02:00−8з3992100 0.1 1035361
05:00−11з3994100 0.1 1035240
08:00−11з31093100 0.0 1034301
11:00−10з31091100 0.0 1033362
14:00−7з4987100 0.0 1031465
17:00−8з41088100 0.0 1031429
20:00−9з41187100 0.0 1030390